Grand Junction, CO

1:56 AM MDT on September 18, 2019 (GMT -0600)
Walker

Weather History for KGJT - April, 2019

Change the Weather History Date:

Saturday, April 20, 2019

  Actual Average Record
Temperature  
Mean Temperature 61 °F 53 °F  
Max Temperature 75 °F 67 °F 85 °F (1989)
Min Temperature 47 °F 39 °F 25 °F (1967)
Degree Days  
Heating Degree Days 4 12  
Month to date heating degree days 230 297  
Since 1 July heating degree days 5338 5329  
Cooling Degree Days 0 0  
Month to date cooling degree days 0 0  
Year to date cooling degree days 0 0  
Growing Degree Days 10 (Base 50)    
Moisture  
Dew Point 29 °F    
Average Humidity 31    
Maximum Humidity 46    
Minimum Humidity 16    
Precipitation  
Precipitation 0.00 in 0.03 in 0.66 in (1985)
Month to date precipitation 0.06 0.63  
Year to date precipitation 3.79 2.67  
Snow  
Snow 0.00 in 0.00 in 1.20 in (1933)
Month to date snowfall T 0.8  
Since 1 July snowfall 17.4 18.9  
Snow Depth 0.00 in    
Sea Level Pressure  
Sea Level Pressure 29.74 in    
Wind  
Wind Speed 12 mph (ESE)    
Max Wind Speed 26 mph    
Max Gust Speed 35 mph    
Visibility 10 miles    
Events      
T = Trace of Precipitation, MM = Missing Value Source: NWS Daily Summary

Daily Weather History Graph

Daily Weather History Graph

Search for Another Location

Airport or City:

Astronomy

Apr. 20, 2019 Rise Set
Actual Time 6:30 AM MDT 7:56 PM MDT
Civil Twilight 6:02 AM MDT 8:24 PM MDT
Nautical Twilight 5:28 AM MDT 8:58 PM MDT
Astronomical Twilight 4:53 AM MDT 9:33 PM MDT
Moon 9:34 PM MDT (4/20) 7:35 AM MDT (4/20)
Length of Visible Light 14h 21m
Length of Day
13h 25m
Full, 98% of the Moon is Illuminated
Apr 20
Full
Apr 26
Last Quarter
May 4
New
May 11
First Quarter
May 18
Full

Hourly Weather History & Observations

Time (MDT) Temp. Dew Point Humidity Pressure Visibility Wind Dir Wind Speed Gust Speed Precip Events Conditions
12:53 AM 53.1 °F 26.1 °F 35% 29.86 in 10.0 mi East 13.8 mph - N/A   Clear
1:53 AM 57.0 °F 27.0 °F 32% 29.84 in 10.0 mi ESE 13.8 mph - N/A   Clear
2:53 AM 48.9 °F 27.0 °F 43% 29.84 in 10.0 mi East 15.0 mph - N/A   Clear
3:53 AM 52.0 °F 25.0 °F 35% 29.82 in 10.0 mi East 9.2 mph 24.2 mph N/A   Clear
4:53 AM 48.9 °F 26.1 °F 41% 29.81 in 10.0 mi East 11.5 mph - N/A   Clear
5:53 AM 48.9 °F 25.0 °F 39% 29.81 in 10.0 mi East 16.1 mph - N/A   Clear
6:53 AM 51.1 °F 26.1 °F 38% 29.80 in 10.0 mi East 11.5 mph - N/A   Clear
7:53 AM 53.1 °F 28.0 °F 38% 29.81 in 10.0 mi ESE 13.8 mph - N/A   Clear
8:53 AM 57.0 °F 27.0 °F 32% 29.81 in 10.0 mi SE 19.6 mph - N/A   Clear
9:53 AM 62.1 °F 28.0 °F 28% 29.76 in 10.0 mi ESE 16.1 mph - N/A   Clear
10:53 AM 69.1 °F 30.0 °F 23% 29.73 in 10.0 mi ESE 16.1 mph - N/A   Clear
11:53 AM 73.9 °F 25.0 °F 16% 29.70 in 10.0 mi ESE 6.9 mph - N/A   Clear
12:53 PM 71.1 °F 30.9 °F 23% 29.71 in 10.0 mi West 16.1 mph 23.0 mph N/A   Clear
1:53 PM 70.0 °F 28.9 °F 22% 29.72 in 10.0 mi West 9.2 mph 25.3 mph N/A   Scattered Clouds
2:53 PM 71.1 °F 28.0 °F 20% 29.71 in 10.0 mi West 8.1 mph - N/A   Partly Cloudy
3:53 PM 71.1 °F 27.0 °F 19% 29.67 in 10.0 mi NNE 5.8 mph - N/A   Partly Cloudy
4:53 PM 70.0 °F 28.0 °F 21% 29.68 in 10.0 mi North 11.5 mph 20.7 mph N/A   Overcast
5:53 PM 66.0 °F 32.0 °F 28% 29.70 in 10.0 mi WSW 12.7 mph 18.4 mph N/A   Mostly Cloudy
6:53 PM 66.9 °F 30.0 °F 25% 29.68 in 10.0 mi SE 6.9 mph - N/A   Partly Cloudy
7:53 PM 63.0 °F 32.0 °F 31% 29.68 in 10.0 mi East 6.9 mph - N/A   Mostly Cloudy
8:53 PM 60.1 °F 33.1 °F 36% 29.69 in 10.0 mi ESE 11.5 mph - N/A   Mostly Cloudy
9:53 PM 57.0 °F 33.1 °F 40% 29.69 in 10.0 mi ESE 11.5 mph - N/A   Partly Cloudy
10:53 PM 57.0 °F 33.1 °F 40% 29.66 in 10.0 mi East 10.4 mph - N/A   Clear
11:53 PM 54.0 °F 33.1 °F 45% 29.65 in 10.0 mi East 12.7 mph - N/A   Clear